AC2VK-1 Weather Reports


time (UTC)temp
C
wind
direction
speed
KPH
gust
KPH
rain 1hr
cm
rain 24hr
cm
rain mn
cm
humidity
%
barometer
mb
20260504035921 12 201 0.0 3.2 0.00 0.00 0.00 63 1019.4
20260504034921 12 204 0.0 3.2 0.00 0.00 0.00 62 1019.2
20260504033921 12 164 0.0 1.6 0.00 0.00 0.00 62 1019.1
20260504032921 12 162 0.0 6.4 0.00 0.00 0.00 61 1019.1
20260504031921 12 185 0.0 1.6 0.00 0.00 0.00 60 1019.1
20260504030921 12 168 1.6 4.8 0.00 0.00 0.00 60 1019.0
20260504025921 13 160 0.0 0.0 0.00 0.00 0.00 59 1019.0
20260504024921 12 161 1.6 3.2 0.00 0.00 0.00 59 1019.0
20260504023921 12 154 1.6 3.2 0.00 0.00 0.00 60 1019.0
20260504022921 12 168 0.0 3.2 0.00 0.00 0.00 59 1019.0
20260504021921 12 167 1.6 1.6 0.00 0.00 0.00 60 1018.9
20260504020921 13 154 1.6 3.2 0.00 0.00 0.00 60 1018.7
20260504015921 13 155 0.0 3.2 0.00 0.00 0.00 59 1018.7
20260504014921 12 155 0.0 0.0 0.00 0.00 0.00 60 1018.6
20260504013921 13 158 0.0 0.0 0.00 0.00 0.00 60 1018.7
20260504012921 13 158 0.0 0.0 0.00 0.00 0.00 58 1018.8
20260504011921 13 158 0.0 0.0 0.00 0.00 0.00 58 1018.8
20260504010921 13 158 0.0 0.0 0.00 0.00 0.00 57 1018.6
20260504005921 14 162 1.6 1.6 0.00 0.00 0.00 56 1018.6
20260504004921 14 162 1.6 6.4 0.00 0.00 0.00 56 1018.5
20260504003921 15 154 1.6 3.2 0.00 0.00 0.00 54 1018.5
20260504002921 15 154 3.2 4.8 0.00 0.00 0.00 54 1018.4
20260504001921 16 153 1.6 4.8 0.00 0.00 0.00 51 1018.4
20260504000921 16 187 1.6 3.2 0.00 0.00 0.00 48 1018.6
20260503235921 16 182 3.2 4.8 0.00 0.00 0.00 48 1018.6
20260503234921 17 145 1.6 6.4 0.00 0.00 0.00 46 1018.7
20260503233921 17 199 3.2 6.4 0.00 0.00 0.00 46 1018.7
20260503232921 17 204 3.2 11.3 0.00 0.00 0.00 44 1018.8
20260503231921 18 143 3.2 12.9 0.00 0.00 0.00 43 1018.9
20260503230921 18 284 3.2 12.9 0.00 0.00 0.00 41 1019.0
20260503225921 18 116 4.8 14.5 0.00 0.00 0.00 42 1019.2
20260503224921 18 188 3.2 9.7 0.00 0.00 0.00 41 1019.2
20260503223921 18 293 4.8 14.5 0.00 0.00 0.00 39 1019.4
20260503222921 18 293 3.2 9.7 0.00 0.00 0.00 41 1019.3
20260503221921 18 251 3.2 12.9 0.00 0.00 0.00 39 1019.4
20260503220921 18 253 4.8 11.3 0.00 0.00 0.00 40 1019.5
20260503215921 18 259 6.4 20.9 0.00 0.00 0.00 38 1019.7
20260503214921 18 206 4.8 12.9 0.00 0.00 0.00 41 1019.7
20260503213921 18 126 3.2 14.5 0.00 0.00 0.00 40 1019.6
20260503212921 18 262 4.8 11.3 0.00 0.00 0.00 40 1019.8
20260503211922 18 193 4.8 6.4 0.00 0.00 0.00 42 1019.9
20260503210922 18 264 4.8 14.5 0.00 0.00 0.00 40 1019.9
20260503205922 18 140 6.4 14.5 0.00 0.00 0.00 40 1020.0
20260503204922 18 198 4.8 9.7 0.00 0.00 0.00 40 1020.0
20260503203922 17 283 4.8 12.9 0.00 0.00 0.00 44 1020.3
20260503202922 18 251 4.8 12.9 0.00 0.00 0.00 42 1020.5
20260503201922 17 314 6.4 14.5 0.00 0.00 0.00 40 1020.6
20260503200922 18 138 3.2 11.3 0.00 0.00 0.00 40 1020.8
20260503195922 17 152 4.8 12.9 0.00 0.00 0.00 41 1021.0
20260503194922 17 282 4.8 9.7 0.00 0.00 0.00 44 1021.1
20260503193922 17 8 3.2 14.5 0.00 0.00 0.00 45 1021.1
20260503192922 17 297 3.2 8.0 0.00 0.00 0.00 44 1021.4
20260503191922 17 243 4.8 14.5 0.00 0.00 0.00 44 1021.5
20260503190922 17 245 4.8 6.4 0.00 0.00 0.00 43 1021.5
20260503185922 17 324 4.8 19.3 0.00 0.00 0.00 44 1021.7
20260503184922 17 29 3.2 9.7 0.00 0.00 0.00 43 1021.8
20260503183922 16 319 4.8 12.9 0.00 0.00 0.00 46 1022.0
20260503182922 16 82 4.8 11.3 0.00 0.00 0.00 47 1021.9
20260503181922 16 289 4.8 12.9 0.00 0.00 0.00 45 1022.3
20260503180922 16 313 4.8 9.7 0.00 0.00 0.00 45 1022.3
20260503175922 15 151 4.8 12.9 0.00 0.00 0.00 45 1022.3
20260503174922 15 354 6.4 6.4 0.00 0.00 0.00 45 1022.5
20260503173922 15 323 6.4 14.5 0.00 0.00 0.00 48 1022.6
20260503172922 16 158 3.2 12.9 0.00 0.00 0.00 45 1022.7
20260503171922 15 342 3.2 9.7 0.00 0.00 0.00 46 1022.9
20260503170922 15 197 4.8 9.7 0.00 0.00 0.00 46 1022.9
20260503150922 12 168 3.2 8.0 0.00 0.00 0.00 51 1024.1
20260503130923 10 300 1.6 3.2 0.00 0.00 0.00 70 1023.9
20260503080923 8 4 0.0 0.0 0.00 0.00 0.00 72 1021.1
20260503072923 9 354 0.0 1.6 0.00 0.00 0.00 71 1020.7
20260503071923 10 354 0.0 1.6 0.00 0.00 0.00 70 1020.5
20260503070923 10 354 0.0 0.0 0.00 0.00 0.00 70 1020.5
20260503054923 10 39 0.0 1.6 0.00 0.00 0.00 71 1020.3
20260503053923 10 39 0.0 1.6 0.00 0.00 0.00 69 1020.3
20260503052923 10 39 0.0 1.6 0.00 0.00 0.00 69 1020.2
20260503051923 10 39 0.0 1.6 0.00 0.00 0.00 70 1020.3
20260503050923 10 39 0.0 1.6 0.00 0.00 0.00 67 1020.3
20260503045923 10 39 0.0 1.6 0.00 0.00 0.00 66 1020.2
20260503044924 11 39 0.0 1.6 0.00 0.00 0.00 66 1020.1
20260503043924 11 39 0.0 1.6 0.00 0.00 0.00 65 1020.1
20260503042924 11 39 0.0 4.8 0.00 0.00 0.00 65 1020.0
20260503041924 11 42 1.6 3.2 0.00 0.00 0.00 65 1020.1
20260503040924 11 29 1.6 3.2 0.00 0.00 0.00 64 1019.9